Location: Bagnolo San Vito
(45.0833°N, 10.8833°E)
Time: 00:10:05
(UTC+00:00)

Cosmos 2084 Rocket - Pass Details

Date: 03 March 2021
Orbit: 527 x 653 km, 62.8° (Epoch: 17 April)

Event Time Altitude Azimuth Distance (km) Brightness Sun altitude
Rises 18:24:26 0° 319° (NW) 2,811 7.7 -14.5°
Reaches altitude 10° 18:26:39 10° 317° (NW) 1,928 6.8 -14.9°
Maximum altitude 18:31:00 71° 234° (SW) 648 3.7 -15.7°
Enters shadow 18:34:59 13° 152° (SSE) 1,790 5.6 -16.4°
